Total_Precipitation_Accumulation
1.41 1.47 1.39 1.42 1.47 1.49 1.48 1.54 1.61 1.65 1.73 1.69 1.68 1.68 1.67 1.73 1.80 1.89 2.00 2.13 2.14 2.17 2.08 2.12 2.24 2.32 2.51 2.54 2.50 2.49 2.49 2.42 2.28 2.14 1.88 1.67 1.64 1.74 1.82 1.69 1.72 1.78 1.70
1.49 1.43 1.38 1.49 1.56 1.65 1.65 1.58 1.59 1.61 1.57 1.57 1.65 1.59 1.57 1.60 1.68 1.79 1.87 1.90 1.95 1.90 1.83 1.88 2.01 2.08 2.22 2.34 2.44 2.36 2.39 2.37 2.33 2.28 2.05 1.84 1.75 1.75 1.84 1.80 1.67 1.64 1.66
1.49 1.52 1.43 1.36 1.45 1.55 1.63 1.58 1.54 1.54 1.53 1.57 1.65 1.70 1.59 1.49 1.56 1.63 1.71 1.73 1.72 1.62 1.60 1.68 1.76 1.86 1.96 2.06 2.15 2.23 2.27 2.26 2.35 2.31 2.12 1.94 1.78 1.73 1.78 1.72 1.65 1.71 1.61
1.52 1.51 1.50 1.47 1.55 1.54 1.51 1.46 1.45 1.44 1.39 1.39 1.48 1.56 1.57 1.50 1.43 1.40 1.41 1.57 1.59 1.51 1.40 1.39 1.43 1.47 1.61 1.75 1.85 1.98 2.14 2.28 2.37 2.38 2.23 1.99 1.81 1.77 1.85 1.89 1.86 1.74 1.73
1.54 1.55 1.48 1.47 1.48 1.51 1.50 1.35 1.29 1.22 1.21 1.23 1.37 1.52 1.56 1.52 1.52 1.50 1.39 1.41 1.48 1.52 1.47 1.35 1.25 1.27 1.42 1.54 1.60 1.82 2.01 2.16 2.29 2.35 2.25 2.08 1.92 1.85 1.81 1.81 1.88 1.96 1.95
1.31 1.37 1.47 1.48 1.40 1.36 1.36 1.33 1.22 1.13 1.11 1.09 1.16 1.29 1.42 1.39 1.60 1.65 1.52 1.38 1.38 1.40 1.40 1.39 1.39 1.37 1.26 1.25 1.35 1.51 1.73 1.89 2.04 2.15 2.17 2.00 1.82 1.79 1.86 1.89 1.89 1.96 1.99
1.22 1.26 1.32 1.35 1.29 1.26 1.19 1.16 1.12 1.06 1.10 1.07 1.13 1.24 1.36 1.55 1.68 1.50 1.56 1.49 1.41 1.41 1.36 1.36 1.38 1.36 1.45 1.31 1.29 1.31 1.32 1.47 1.70 1.90 1.92 1.82 1.87 1.82 1.82 1.79 1.77 1.76 1.79
1.10 1.14 1.11 1.13 1.14 1.17 1.05 1.04 1.03 1.04 1.08 1.10 1.15 1.22 1.30 1.51 1.63 1.46 1.65 1.65 1.60 1.53 1.47 1.50 1.54 1.55 1.48 1.61 1.58 1.47 1.35 1.31 1.41 1.33 1.39 1.68 1.83 1.91 1.94 1.95 1.98 1.88 1.79
0.93 0.97 0.99 0.98 1.01 1.05 1.01 1.11 1.12 1.07 1.09 1.10 1.09 1.10 1.11 1.22 1.38 1.32 1.47 1.55 1.64 1.63 1.50 1.47 1.52 1.52 1.77 1.89 1.72 1.62 1.50 1.42 1.60 1.62 1.59 1.67 1.79 1.83 1.84 1.89 1.95 1.91 1.81
0.82 0.87 0.93 0.94 0.98 1.06 1.21 1.31 1.31 1.24 1.13 1.06 1.02 0.98 0.99 1.02 1.25 1.16 1.27 1.31 1.46 1.61 1.57 1.51 1.70 1.63 1.70 1.71 1.60 1.74 1.64 1.49 1.42 1.39 1.37 1.43 1.47 1.57 1.66 1.64 1.77 1.82 1.73
0.63 0.74 0.88 0.99 1.03 1.17 1.34 1.37 1.30 1.23 1.10 1.00 0.97 0.96 0.95 1.01 1.24 1.23 1.31 1.31 1.39 1.47 1.50 1.49 1.47 1.66 1.54 1.54 1.56 1.61 1.74 1.70 1.66 1.66 1.55 1.45 1.40 1.41 1.41 1.45 1.59 1.69 1.70
0.58 0.63 0.73 0.89 1.01 1.17 1.33 1.31 1.28 1.26 1.15 1.03 1.01 1.00 1.02 1.13 1.20 1.25 1.29 1.35 1.41 1.40 1.34 1.21 1.23 1.41 1.31 1.31 1.32 1.42 1.64 1.68 1.61 1.66 1.61 1.49 1.38 1.31 1.29 1.34 1.47 1.55 1.55
0.52 0.53 0.59 0.69 0.83 1.01 1.15 1.18 1.19 1.20 1.15 1.08 1.02 0.99 1.01 1.09 1.23 1.42 1.32 1.23 1.20 1.19 1.17 1.21 1.15 1.14 1.13 1.07 1.13 1.28 1.38 1.54 1.62 1.61 1.48 1.36 1.32 1.32 1.33 1.34 1.35 1.46 1.50
0.48 0.52 0.54 0.57 0.61 0.71 0.82 0.94 1.03 1.04 1.02 1.01 1.01 0.99 1.01 1.03 1.03 1.16 1.23 1.16 1.08 1.04 1.01 0.96 0.97 0.98 0.99 0.97 0.98 1.02 1.11 1.39 1.62 1.56 1.44 1.36 1.36 1.40 1.46 1.48 1.45 1.42 1.49
0.50 0.55 0.58 0.61 0.63 0.65 0.67 0.73 0.83 0.85 0.93 1.00 0.99 0.99 0.98 0.96 0.99 1.14 1.16 1.12 1.15 1.17 1.19 1.08 1.03 0.97 0.96 0.96 0.96 1.03 1.17 1.33 1.50 1.44 1.46 1.42 1.42 1.48 1.50 1.53 1.62 1.59 1.53
0.47 0.48 0.49 0.53 0.60 0.62 0.64 0.68 0.77 0.80 0.87 0.87 0.88 0.88 0.81 0.87 0.98 0.99 1.00 1.04 1.11 1.25 1.30 1.21 1.23 1.18 1.14 1.11 1.07 1.06 1.10 1.19 1.29 1.38 1.42 1.45 1.47 1.51 1.51 1.52 1.58 1.62 1.58
0.48 0.47 0.47 0.47 0.54 0.60 0.62 0.67 0.71 0.71 0.71 0.71 0.74 0.80 0.77 0.73 0.73 0.75 0.83 0.95 1.04 1.15 1.18 1.18 1.21 1.19 1.15 1.13 1.11 1.09 1.10 1.13 1.20 1.31 1.45 1.54 1.56 1.59 1.64 1.64 1.63 1.63 1.56
0.53 0.56 0.56 0.55 0.58 0.60 0.66 0.71 0.70 0.70 0.67 0.59 0.59 0.65 0.69 0.71 0.70 0.70 0.71 0.77 0.80 0.90 0.97 1.07 1.12 1.16 1.15 1.14 1.10 1.07 1.07 1.09 1.15 1.21 1.33 1.46 1.62 1.74 1.76 1.76 1.77 1.77 1.72
0.53 0.56 0.59 0.62 0.62 0.63 0.67 0.74 0.76 0.72 0.66 0.61 0.57 0.59 0.68 0.70 0.71 0.74 0.73 0.67 0.66 0.71 0.78 0.89 0.97 1.03 1.03 1.05 1.09 1.12 1.13 1.14 1.13 1.17 1.21 1.26 1.38 1.57 1.70 1.76 1.82 1.97 1.94
0.50 0.59 0.61 0.62 0.66 0.69 0.69 0.70 0.70 0.72 0.69 0.65 0.61 0.60 0.66 0.69 0.64 0.62 0.64 0.67 0.71 0.75 0.77 0.83 0.90 0.96 1.02 1.06 1.09 1.10 1.11 1.11 1.12 1.16 1.18 1.22 1.28 1.37 1.48 1.57 1.66 1.78 1.86
0.54 0.57 0.62 0.60 0.60 0.65 0.66 0.66 0.66 0.66 0.65 0.61 0.59 0.60 0.67 0.68 0.69 0.65 0.65 0.66 0.70 0.74 0.76 0.78 0.81 0.87 0.93 1.02 1.15 1.22 1.19 1.16 1.16 1.20 1.27 1.30 1.33 1.37 1.38 1.44 1.50 1.59 1.68
0.59 0.58 0.55 0.55 0.58 0.61 0.64 0.63 0.63 0.66 0.65 0.62 0.58 0.58 0.65 0.64 0.65 0.63 0.62 0.62 0.62 0.67 0.71 0.75 0.72 0.71 0.77 0.87 1.04 1.23 1.29 1.22 1.18 1.23 1.31 1.36 1.38 1.40 1.42 1.46 1.52 1.59 1.62
0.55 0.58 0.60 0.61 0.62 0.66 0.69 0.67 0.66 0.65 0.67 0.66 0.66 0.63 0.61 0.59 0.60 0.60 0.59 0.60 0.60 0.61 0.66 0.71 0.69 0.69 0.70 0.76 0.88 1.05 1.17 1.26 1.32 1.37 1.42 1.44 1.43 1.43 1.47 1.48 1.47 1.57 1.61
0.51 0.49 0.54 0.60 0.64 0.70 0.71 0.72 0.72 0.69 0.70 0.70 0.68 0.67 0.66 0.65 0.62 0.59 0.59 0.60 0.62 0.63 0.65 0.67 0.70 0.70 0.74 0.76 0.77 0.84 0.93 1.03 1.12 1.22 1.32 1.43 1.44 1.44 1.48 1.50 1.48 1.50 1.58
0.50 0.50 0.54 0.59 0.61 0.64 0.68 0.73 0.81 0.81 0.78 0.74 0.70 0.68 0.66 0.65 0.66 0.64 0.62 0.64 0.66 0.67 0.65 0.63 0.64 0.69 0.74 0.77 0.77 0.82 1.02 1.10 1.08 1.11 1.19 1.32 1.39 1.42 1.49 1.55 1.61 1.63 1.64
0.52 0.52 0.53 0.57 0.60 0.61 0.66 0.72 0.78 0.82 0.81 0.77 0.75 0.75 0.74 0.70 0.70 0.70 0.69 0.71 0.73 0.72 0.72 0.71 0.70 0.71 0.74 0.79 0.82 0.93 1.06 1.03 1.04 1.15 1.18 1.23 1.33 1.36 1.44 1.57 1.62 1.70 1.75